Location: Lourdes
(43.1000°N, 0.0500°W)
Time: 01:13:19
(UTC+00:00)

CZ-4 R/B - Visible Passes

Search period start: 14 April 2021 00:00
Search period end: 24 April 2021 00:00
Orbit: 532 x 597 km, 97.7° (Epoch: 12 April)

Date Brightness Start Highest point End Pass type
(mag) Time Alt. Az. Time Alt. Az. Time Alt. Az.
14 Apr 4.4 19:48:54 10° SW 19:51:32 16° W 19:54:09 10° NW visible
15 Apr 4.4 19:49:05 10° SW 19:51:41 16° W 19:54:19 10° NW visible
16 Apr 4.4 19:49:15 10° SW 19:51:52 16° W 19:54:29 10° NW visible
17 Apr 4.4 19:49:25 10° SW 19:52:01 16° W 19:54:38 10° NW visible
18 Apr 4.4 19:49:36 10° SW 19:52:11 16° W 19:54:47 10° NW visible
19 Apr 4.4 19:49:46 10° SW 19:52:21 16° W 19:54:56 10° NW visible
20 Apr 4.4 19:49:56 10° SW 19:52:30 16° W 19:55:05 10° NW visible
21 Apr 4.4 19:50:06 10° SW 19:52:40 16° W 19:55:13 10° NW visible
22 Apr 4.4 19:50:16 10° SW 19:52:49 16° W 19:55:22 10° NW visible
23 Apr 4.4 19:50:26 10° SW 19:52:58 16° W 19:55:31 10° NW visible
